APG1192 RPLL-RPVE

Flight info

Callsign APG1192
Flight time 0h 51m
Altitude 25000
Route VERDE2R VERDE W24 TAPER TAPER7A
Aircraft A20N/M-SDE2E3FGHIRWXY/LB1

Departure

Time 2026-04-25 13:14
Airport Ninoy Aquino International Airport (RPLL)

Arrival

Time 2026-04-25 14:05
Airport Godofredo P. Ramos Airport (RPVE)
Time Latitude Longitude Altitude Speed Heading
2026-04-25 12:19 14.50810 121.01242 49 ft 0 kts 330°
2026-04-25 12:57 14.50807 121.01244 49 ft 2 kts 330°
2026-04-25 12:57 14.50794 121.01252 49 ft 2 kts 330°
2026-04-25 12:57 14.50783 121.01258 49 ft 0 kts 330°
2026-04-25 12:57 14.50773 121.01265 49 ft 2 kts 316°
2026-04-25 12:58 14.50763 121.01277 49 ft 2 kts 302°
2026-04-25 12:58 14.50757 121.01291 49 ft 2 kts 285°
2026-04-25 12:58 14.50754 121.01306 49 ft 2 kts 270°
2026-04-25 12:58 14.50756 121.01321 49 ft 2 kts 255°
2026-04-25 12:59 14.50760 121.01334 50 ft 0 kts 242°
2026-04-25 12:59 14.50763 121.01339 50 ft 0 kts 239°
2026-04-25 13:02 14.50761 121.01335 50 ft 1 kts 236°
2026-04-25 13:02 14.50745 121.01320 49 ft 4 kts 208°
2026-04-25 13:02 14.50715 121.01319 49 ft 0 kts 164°
2026-04-25 13:03 14.50714 121.01319 49 ft 0 kts 163°
2026-04-25 13:03 14.50705 121.01321 48 ft 2 kts 173°
2026-04-25 13:04 14.50680 121.01316 48 ft 5 kts 203°
2026-04-25 13:04 14.50647 121.01279 46 ft 8 kts 236°
2026-04-25 13:04 14.50608 121.01212 44 ft 12 kts 240°
2026-04-25 13:04 14.50563 121.01129 42 ft 14 kts 240°
2026-04-25 13:05 14.50508 121.01029 39 ft 17 kts 240°
2026-04-25 13:05 14.50446 121.00917 38 ft 18 kts 240°
2026-04-25 13:05 14.50384 121.00805 39 ft 17 kts 240°
2026-04-25 13:05 14.50323 121.00697 38 ft 17 kts 240°
2026-04-25 13:06 14.50250 121.00565 37 ft 27 kts 240°
2026-04-25 13:06 14.50162 121.00407 36 ft 17 kts 240°
2026-04-25 13:06 14.50096 121.00291 34 ft 19 kts 242°
2026-04-25 13:06 14.50028 121.00169 33 ft 19 kts 240°
2026-04-25 13:07 14.49971 121.00063 31 ft 14 kts 240°
2026-04-25 13:07 14.49936 121.00001 29 ft 2 kts 238°
2026-04-25 13:10 14.49933 120.99996 29 ft 1 kts 238°
2026-04-25 13:10 14.49918 120.99978 29 ft 4 kts 220°
2026-04-25 13:10 14.49887 120.99967 29 ft 3 kts 176°
2026-04-25 13:10 14.49883 120.99968 29 ft 0 kts 171°
2026-04-25 13:11 14.49882 120.99968 29 ft 0 kts 170°
2026-04-25 13:11 14.49875 120.99970 29 ft 2 kts 162°
2026-04-25 13:12 14.49851 120.99981 30 ft 5 kts 153°
2026-04-25 13:12 14.49808 121.00024 30 ft 10 kts 103°
2026-04-25 13:12 14.49836 121.00104 31 ft 12 kts 62°
2026-04-25 13:12 14.49850 121.00131 32 ft 12 kts 61°
2026-04-25 13:13 14.49866 121.00159 32 ft 0 kts 60°
2026-04-25 13:13 14.49878 121.00181 33 ft 22 kts 60°
2026-04-25 13:13 14.50081 121.00543 36 ft 91 kts 60°
2026-04-25 13:14 14.50508 121.01311 42 ft 149 kts 61°
2026-04-25 13:14 14.51085 121.02329 321 ft 170 kts 61°
2026-04-25 13:14 14.51698 121.03391 818 ft 180 kts 61°
2026-04-25 13:14 14.52367 121.04546 1303 ft 196 kts 60°
2026-04-25 13:15 14.53092 121.05817 1810 ft 214 kts 60°
2026-04-25 13:15 14.53860 121.07190 2318 ft 232 kts 60°
2026-04-25 13:15 14.54686 121.08699 2837 ft 250 kts 60°
2026-04-25 13:15 14.55562 121.10317 3379 ft 267 kts 60°
2026-04-25 13:16 14.56505 121.12055 3917 ft 284 kts 60°
2026-04-25 13:16 14.57493 121.13865 4454 ft 300 kts 60°
2026-04-25 13:16 14.58494 121.15691 4961 ft 272 kts 60°
2026-04-25 13:16 14.59424 121.17383 5497 ft 270 kts 60°
2026-04-25 13:17 14.60260 121.19096 6016 ft 272 kts 71°
2026-04-25 13:17 14.60464 121.21036 6539 ft 274 kts 98°
2026-04-25 13:17 14.59763 121.22832 7168 ft 278 kts 126°
2026-04-25 13:17 14.58326 121.24190 7904 ft 281 kts 143°
2026-04-25 13:18 14.56679 121.25297 8624 ft 284 kts 147°
2026-04-25 13:18 14.55008 121.26353 9333 ft 286 kts 147°
2026-04-25 13:18 14.53307 121.27413 10035 ft 288 kts 148°
2026-04-25 13:18 14.51578 121.28500 10744 ft 290 kts 148°
2026-04-25 13:19 14.49812 121.29622 10974 ft 312 kts 148°
2026-04-25 13:19 14.47845 121.30878 11003 ft 341 kts 148°
2026-04-25 13:19 14.45765 121.32213 11004 ft 360 kts 148°
2026-04-25 13:19 14.45045 121.32675 11003 ft 362 kts 148°
2026-04-25 13:20 14.41465 121.34982 11001 ft 364 kts 148°
2026-04-25 13:20 14.40029 121.35908 11000 ft 364 kts 148°
2026-04-25 13:20 14.37150 121.37766 10998 ft 364 kts 147°
2026-04-25 13:20 14.34961 121.39175 11001 ft 364 kts 148°
2026-04-25 13:21 14.32789 121.40564 11019 ft 366 kts 150°
2026-04-25 13:21 14.30448 121.41660 11404 ft 373 kts 157°
2026-04-25 13:21 14.28100 121.42815 12181 ft 372 kts 155°
2026-04-25 13:21 14.25643 121.43614 12785 ft 373 kts 175°
2026-04-25 13:22 14.23064 121.43279 13385 ft 373 kts 201°
2026-04-25 13:22 14.21517 121.42471 13801 ft 373 kts 212°
2026-04-25 13:22 14.18547 121.40560 14537 ft 378 kts 212°
2026-04-25 13:23 14.13928 121.37767 15609 ft 385 kts 210°
2026-04-25 13:23 14.11561 121.36415 16130 ft 389 kts 210°
2026-04-25 13:23 14.09161 121.35072 16632 ft 392 kts 209°
2026-04-25 13:23 14.06741 121.33736 17110 ft 395 kts 209°
2026-04-25 13:24 14.04292 121.32391 17583 ft 399 kts 209°
2026-04-25 13:24 14.01811 121.31037 18085 ft 401 kts 209°
2026-04-25 13:24 14.00136 121.30124 18433 ft 402 kts 209°
2026-04-25 13:24 13.96802 121.28307 19085 ft 405 kts 209°
2026-04-25 13:25 13.94281 121.26937 19559 ft 407 kts 209°
2026-04-25 13:25 13.92569 121.26006 19881 ft 408 kts 209°
2026-04-25 13:25 13.89214 121.24184 20482 ft 411 kts 209°
2026-04-25 13:25 13.86689 121.22820 20903 ft 414 kts 208°
2026-04-25 13:26 13.84099 121.21423 21343 ft 416 kts 209°
2026-04-25 13:26 13.81503 121.20019 21775 ft 418 kts 209°
2026-04-25 13:26 13.78903 121.18612 22189 ft 420 kts 209°
2026-04-25 13:26 13.76321 121.17214 22586 ft 422 kts 209°
2026-04-25 13:27 13.73686 121.15786 22979 ft 425 kts 209°
2026-04-25 13:27 13.71025 121.14343 23367 ft 427 kts 209°
2026-04-25 13:27 13.68388 121.12915 23746 ft 429 kts 209°
2026-04-25 13:27 13.65741 121.11481 24122 ft 431 kts 209°
2026-04-25 13:28 13.63067 121.10034 24490 ft 433 kts 209°
2026-04-25 13:28 13.62165 121.09546 24611 ft 434 kts 209°
2026-04-25 13:28 13.57684 121.07120 24954 ft 436 kts 209°
2026-04-25 13:28 13.54981 121.05720 24949 ft 437 kts 204°
2026-04-25 13:29 13.52017 121.04963 24948 ft 440 kts 187°
2026-04-25 13:29 13.49919 121.04971 24953 ft 443 kts 175°
2026-04-25 13:29 13.45960 121.06204 24965 ft 449 kts 153°
2026-04-25 13:30 13.42441 121.08588 24991 ft 450 kts 147°
2026-04-25 13:30 13.38140 121.11703 25008 ft 450 kts 147°
2026-04-25 13:30 13.35586 121.13522 25015 ft 450 kts 147°
2026-04-25 13:31 13.30324 121.17203 25022 ft 450 kts 147°
2026-04-25 13:31 13.27738 121.19010 25018 ft 450 kts 147°
2026-04-25 13:31 13.25129 121.20834 25012 ft 450 kts 147°
2026-04-25 13:31 13.22539 121.22648 25005 ft 450 kts 147°
2026-04-25 13:32 13.19953 121.24459 24992 ft 450 kts 147°
2026-04-25 13:32 13.18200 121.25687 24985 ft 450 kts 147°
2026-04-25 13:32 13.14768 121.28092 24982 ft 450 kts 147°
2026-04-25 13:32 13.12171 121.29911 24981 ft 450 kts 147°
2026-04-25 13:33 13.09577 121.31728 24984 ft 450 kts 147°
2026-04-25 13:33 13.07004 121.33529 24985 ft 450 kts 147°
2026-04-25 13:33 13.04392 121.35357 24916 ft 451 kts 147°
2026-04-25 13:33 13.03525 121.35963 24751 ft 451 kts 147°
2026-04-25 13:34 12.99259 121.38947 23933 ft 444 kts 147°
2026-04-25 13:34 12.96715 121.40727 23427 ft 440 kts 147°
2026-04-25 13:34 12.94201 121.42486 22912 ft 436 kts 147°
2026-04-25 13:34 12.91686 121.44244 22382 ft 432 kts 147°
2026-04-25 13:35 12.89216 121.45971 21864 ft 429 kts 147°
2026-04-25 13:35 12.86745 121.47690 21341 ft 426 kts 147°
2026-04-25 13:35 12.84301 121.49388 20819 ft 423 kts 146°
2026-04-25 13:35 12.81855 121.51091 20290 ft 420 kts 146°
2026-04-25 13:36 12.79452 121.52767 19772 ft 417 kts 146°
2026-04-25 13:36 12.77075 121.54425 19264 ft 413 kts 146°
2026-04-25 13:36 12.74680 121.56097 18747 ft 410 kts 146°
2026-04-25 13:36 12.72339 121.57731 18235 ft 407 kts 146°
2026-04-25 13:37 12.70010 121.59359 17725 ft 403 kts 146°
2026-04-25 13:37 12.67695 121.60976 17213 ft 400 kts 146°
2026-04-25 13:37 12.65400 121.62580 16698 ft 397 kts 146°
2026-04-25 13:37 12.63142 121.64159 16191 ft 395 kts 146°
2026-04-25 13:38 12.60881 121.65738 15674 ft 392 kts 146°
2026-04-25 13:38 12.58627 121.67323 15159 ft 390 kts 146°
2026-04-25 13:38 12.57136 121.68372 14817 ft 389 kts 146°
2026-04-25 13:38 12.54192 121.70437 14142 ft 386 kts 146°
2026-04-25 13:39 12.51976 121.71988 13637 ft 383 kts 146°
2026-04-25 13:39 12.50508 121.73013 13306 ft 382 kts 146°
2026-04-25 13:39 12.47558 121.75071 12610 ft 379 kts 146°
2026-04-25 13:39 12.45384 121.76585 12101 ft 377 kts 145°
2026-04-25 13:40 12.43936 121.77593 11765 ft 375 kts 145°
2026-04-25 13:40 12.41085 121.79578 11106 ft 372 kts 145°
2026-04-25 13:40 12.38959 121.81057 10622 ft 368 kts 146°
2026-04-25 13:40 12.37473 121.81928 10450 ft 361 kts 157°
2026-04-25 13:41 12.34280 121.82317 10263 ft 343 kts 188°
2026-04-25 13:41 12.31971 121.81821 10159 ft 329 kts 192°
2026-04-25 13:41 12.29760 121.81309 10066 ft 315 kts 192°
2026-04-25 13:41 12.27664 121.80830 9952 ft 303 kts 192°
2026-04-25 13:42 12.25605 121.80360 9746 ft 299 kts 192°
2026-04-25 13:42 12.23595 121.79868 9556 ft 299 kts 198°
2026-04-25 13:42 12.21823 121.78769 9341 ft 298 kts 229°
2026-04-25 13:42 12.20890 121.76894 9148 ft 296 kts 261°
2026-04-25 13:43 12.20935 121.74818 8999 ft 294 kts 285°
2026-04-25 13:43 12.21790 121.72940 8976 ft 293 kts 309°
2026-04-25 13:43 12.23289 121.71580 8970 ft 290 kts 333°
2026-04-25 13:43 12.25200 121.70968 8969 ft 286 kts 358°
2026-04-25 13:44 12.27147 121.71210 8914 ft 280 kts 21°
2026-04-25 13:44 12.28802 121.72225 8551 ft 277 kts 46°
2026-04-25 13:44 12.30002 121.73748 8146 ft 276 kts 54°
2026-04-25 13:44 12.31148 121.75333 7767 ft 275 kts 57°
2026-04-25 13:45 12.31972 121.77082 7422 ft 271 kts 75°
2026-04-25 13:45 12.32234 121.78966 7109 ft 268 kts 90°
2026-04-25 13:45 12.32117 121.80204 6999 ft 266 kts 100°
2026-04-25 13:45 12.31208 121.82559 6977 ft 270 kts 121°
2026-04-25 13:46 12.29993 121.84023 6972 ft 273 kts 136°
2026-04-25 13:46 12.28383 121.85099 6970 ft 278 kts 153°
2026-04-25 13:46 12.26556 121.85747 6972 ft 280 kts 160°
2026-04-25 13:46 12.25298 121.86122 6970 ft 281 kts 161°
2026-04-25 13:47 12.22773 121.86856 6843 ft 280 kts 161°
2026-04-25 13:47 12.20889 121.87407 6723 ft 280 kts 160°
2026-04-25 13:47 12.19008 121.87960 6604 ft 279 kts 160°
2026-04-25 13:47 12.17133 121.88515 6484 ft 278 kts 160°
2026-04-25 13:48 12.15286 121.89062 6366 ft 277 kts 159°
2026-04-25 13:48 12.13429 121.89616 6247 ft 276 kts 159°
2026-04-25 13:48 12.11558 121.90173 6073 ft 276 kts 159°
2026-04-25 13:48 12.09725 121.90719 5836 ft 275 kts 159°
2026-04-25 13:49 12.07910 121.91259 5586 ft 267 kts 159°
2026-04-25 13:49 12.06158 121.91777 5350 ft 257 kts 159°
2026-04-25 13:49 12.04456 121.92279 5109 ft 252 kts 161°
2026-04-25 13:49 12.02704 121.92352 4963 ft 251 kts 194°
2026-04-25 13:50 12.01285 121.91398 4959 ft 251 kts 231°
2026-04-25 13:50 12.00600 121.89743 4955 ft 254 kts 267°
2026-04-25 13:50 12.00901 121.88026 4952 ft 249 kts 302°
2026-04-25 13:50 12.02043 121.86757 4954 ft 239 kts 336°
2026-04-25 13:51 12.03579 121.86209 4967 ft 234 kts 352°
2026-04-25 13:51 12.05193 121.85805 4964 ft 236 kts 351°
2026-04-25 13:51 12.06770 121.85387 4962 ft 236 kts 350°
2026-04-25 13:51 12.08370 121.84941 4960 ft 236 kts 349°
2026-04-25 13:52 12.09966 121.84557 4952 ft 232 kts
2026-04-25 13:52 12.11474 121.84902 4951 ft 219 kts 36°
2026-04-25 13:52 12.12542 121.85986 4958 ft 214 kts 63°
2026-04-25 13:52 12.12946 121.87427 4961 ft 214 kts 89°
2026-04-25 13:53 12.12623 121.88895 4962 ft 218 kts 115°
2026-04-25 13:53 12.11614 121.90055 4961 ft 226 kts 143°
2026-04-25 13:53 12.10109 121.90656 4969 ft 233 kts 159°
2026-04-25 13:53 12.08535 121.91110 4963 ft 234 kts 159°
2026-04-25 13:54 12.06971 121.91561 4960 ft 234 kts 159°
2026-04-25 13:54 12.05395 121.92017 4960 ft 235 kts 161°
2026-04-25 13:54 12.03672 121.92103 4956 ft 267 kts 192°
2026-04-25 13:54 12.02061 121.91136 4943 ft 268 kts 227°
2026-04-25 13:55 12.01123 121.89559 4951 ft 254 kts 244°
2026-04-25 13:55 12.00400 121.87957 4945 ft 241 kts 243°
2026-04-25 13:55 11.99661 121.86446 4955 ft 240 kts 240°
2026-04-25 13:55 11.98865 121.85001 4937 ft 225 kts 237°
2026-04-25 13:56 11.98073 121.83674 4926 ft 209 kts 236°
2026-04-25 13:56 11.97318 121.82462 4916 ft 195 kts 234°
2026-04-25 13:56 11.96576 121.81301 4942 ft 196 kts 234°
2026-04-25 13:56 11.95831 121.80147 4950 ft 196 kts 234°
2026-04-25 13:57 11.95081 121.78984 4956 ft 196 kts 234°
2026-04-25 13:57 11.94832 121.78599 4957 ft 196 kts 234°
2026-04-25 13:57 11.93587 121.76670 4958 ft 195 kts 234°
2026-04-25 13:57 11.92832 121.75497 4958 ft 195 kts 233°
2026-04-25 13:58 11.91940 121.74478 4941 ft 189 kts 209°
2026-04-25 13:58 11.90808 121.73918 4752 ft 178 kts 185°
2026-04-25 13:58 11.89590 121.73835 4462 ft 175 kts 163°
2026-04-25 13:58 11.88445 121.74187 4219 ft 165 kts 147°
2026-04-25 13:59 11.87429 121.74719 3901 ft 164 kts 144°
2026-04-25 13:59 11.86452 121.75251 3769 ft 151 kts 144°
2026-04-25 13:59 11.85539 121.75741 3767 ft 148 kts 144°
2026-04-25 13:59 11.84683 121.76302 3757 ft 141 kts 126°
2026-04-25 14:00 11.84290 121.76831 3767 ft 136 kts 111°
2026-04-25 14:00 11.84012 121.78032 3765 ft 130 kts 79°
2026-04-25 14:00 11.84270 121.78923 3712 ft 131 kts 68°
2026-04-25 14:00 11.84651 121.79756 3628 ft 130 kts 65°
2026-04-25 14:01 11.85061 121.80588 3517 ft 130 kts 64°
2026-04-25 14:01 11.85469 121.81396 3320 ft 126 kts 64°
2026-04-25 14:01 11.85876 121.82205 2912 ft 132 kts 64°
2026-04-25 14:01 11.86155 121.82762 2652 ft 134 kts 64°
2026-04-25 14:02 11.86718 121.83886 2400 ft 136 kts 63°
2026-04-25 14:02 11.87159 121.84766 2208 ft 140 kts 63°
2026-04-25 14:02 11.87599 121.85645 1989 ft 139 kts 64°
2026-04-25 14:02 11.87747 121.85941 1928 ft 139 kts 64°
2026-04-25 14:03 11.88474 121.87399 1622 ft 138 kts 63°
2026-04-25 14:03 11.88905 121.88264 1438 ft 137 kts 64°
2026-04-25 14:03 11.89339 121.89133 1260 ft 137 kts 63°
2026-04-25 14:03 11.89770 121.89996 1082 ft 136 kts 63°
2026-04-25 14:04 11.90205 121.90868 899 ft 136 kts 64°
2026-04-25 14:04 11.90630 121.91721 729 ft 135 kts 64°
2026-04-25 14:04 11.91062 121.92580 528 ft 135 kts 64°
2026-04-25 14:04 11.91487 121.93435 374 ft 134 kts 64°
2026-04-25 14:05 11.91898 121.94286 193 ft 134 kts 64°
2026-04-25 14:05 11.92314 121.95121 40 ft 130 kts 63°
2026-04-25 14:05 11.92665 121.95820 12 ft 72 kts 64°
2026-04-25 14:05 11.92853 121.96197 13 ft 35 kts 64°
2026-04-25 14:06 11.92935 121.96377 12 ft 22 kts 76°
2026-04-25 14:06 11.92913 121.96480 12 ft 11 kts 143°
2026-04-25 14:06 11.92856 121.96508 12 ft 9 kts 148°
2026-04-25 14:06 11.92805 121.96531 12 ft 6 kts 179°
2026-04-25 14:07 11.92768 121.96506 12 ft 7 kts 236°
2026-04-25 14:07 11.92743 121.96458 12 ft 7 kts 243°
2026-04-25 14:07 11.92722 121.96435 12 ft 4 kts 186°
2026-04-25 14:07 11.92695 121.96443 12 ft 3 kts 153°
2026-04-25 14:08 11.92693 121.96444 12 ft 0 kts 151°